Find Local Weather

World > North America > United States > Ohio

Bryan, Ohio Regional Weather

Lat: 41.47N, Lon: 84.55W
Wx Zone: OHZ001
Feedback
Expires:201810191800;;427450
ASUS41 KCLE 191712
RWRCLE
OHIO REGIONAL WEATHER ROUNDUP
NATIONAL WEATHER SERVICE WILMINGTON, OH
100 PM EDT FRI OCT 19 2018

NOTE: "FAIR" INDICATES FEW OR NO CLOUDS BELOW 12,000 FEET WITH NO
SIGNIFICANT WEATHER AND/OR OBSTRUCTIONS TO VISIBILITY.


OHZ001>008-015>018-024>027-034-035-043-044-191800-
   NORTHWEST OHIO
  
CITY           SKY/WX    TMP DP  RH WIND       PRES   REMARKS
DEFIANCE       FAIR      54  35  48 SW15G26   30.11F                  
FINDLAY        FAIR      57  35  43 SW17G23   30.11F                  
TOLEDO EXPRESS FAIR      58  34  40 SW16G24   30.09F                  
TOLEDO EXEC    LGT RAIN  57  35  43 SW18      30.09F                  
LIMA           FAIR      55  35  47 SW16G23   30.14F                  
$$
 

SKY/WX - Weather  TMP - Temperature  DP - Dew Point  RH - Relative Humidity
WIND - Wind Direction/Speed PRES - Barometric Pressure